Location: B�di�
(14.6834°N, 3.1047°W)
Time: 05:49:42
(UTC+00:00)

Cosmos 2058 - Pass Details

Date: 24 January 2020
Orbit: 563 x 583 km, 82.5° (Epoch: 19 February)

Event Time Altitude Azimuth Distance (km) Brightness Sun altitude
Rises 19:54:52 0° 200° (SSW) 2,746 6.8 -25.7°
Reaches altitude 10° 19:57:09 10° 208° (SSW) 1,852 6.0 -26.3°
Maximum altitude 20:00:55 36° 276° (W) 901 4.3 -27.2°
Enters shadow 20:02:14 28° 315° (NW) 1,067 4.5 -27.5°
